Miscellaneous Local Product
Issued by NWS Hastings, NE

Home | Current Version | Previous Version | Text Only | Print | Product List | Glossary Off
Versions: 1 2 3 4 5 6 7 8 9 10 11 12 13 14 15 16 17 18 19 20 21 22 23 24 25 26 27 28 29 30 31 32 33 34 35 36 37 38 39 40 41 42 43 44 45 46 47 48 49 50

000
AXUS43 KGID 191702
MISGRI

GID CWA HOURLY WEATHER ROUNDUP
NATIONAL WEATHER SERVICE HASTINGS NE
1100 AM CST SUN NOV 19 2017

NOTE: "FAIR" INDICATES FEW OR NO CLOUDS BELOW 12,000 FEET WITH NO
SIGNIFICANT WEATHER AND/OR OBSTRUCTIONS TO VISIBILITY.

...SOUTH CENTRAL NEBRASKA...

CITY           SKY/WX    TMP DP  RH WIND       PRES   REMARKS
GRAND ISLAND   SUNNY     42  29  59 W10       30.15F
KEARNEY        SUNNY     43  23  45 W9        30.15F
HASTINGS       SUNNY     45  28  51 SW7       30.16F
ORD            SUNNY     44  26  49 SW9       30.09F
YORK           SUNNY     37  32  81 CALM      30.16F
AURORA         SUNNY     44  28  53 SW8       30.15F
LEXINGTON      SUNNY     46  25  43 W9        30.13F
HOLDREGE       SUNNY     44  26  49 W12       30.15S
HEBRON         SUNNY     43  28  55 SW6       30.21S

...NEBRASKA PANHANDLE...

CITY           SKY/WX    TMP DP  RH WIND       PRES   REMARKS
CHADRON        SUNNY     45  20  36 W8        30.03F
ALLIANCE       SUNNY     47  16  29 W17       30.04F
SCOTTSBLUFF    SUNNY     48  15  26 W17       30.05F
SIDNEY         SUNNY     49  23  36 SW8       30.09F

...WESTERN AND NORTH CENTRAL NEBRASKA...

CITY           SKY/WX    TMP DP  RH WIND       PRES   REMARKS
VALENTINE      SUNNY     44  24  45 W14       30.03F
AINSWORTH      SUNNY     43  27  52 SW10      30.03F
ONEILL         SUNNY     43  28  56 SW12      30.06F
BROKEN BOW     SUNNY     45  23  42 SW14      30.10F
IMPERIAL       SUNNY     43  24  47 SW9       30.12F
NORTH PLATTE   SUNNY     45  23  42 SW10      30.12F
MCCOOK         SUNNY     45  25  45 SW10      30.15F

...EASTERN NEBRASKA...

CITY           SKY/WX    TMP DP  RH WIND       PRES   REMARKS
NORFOLK        SUNNY     44  29  55 S8        30.08F
SO SIOUX CITY  SUNNY     40  28  62 S7        30.12F
TEKAMAH        SUNNY     42  28  57 S9        30.15F
COLUMBUS       SUNNY     42  29  59 S8        30.14F
ALBION         SUNNY     42  28  58 SW7       30.10F
OMAHA EPPLEY   MOSUNNY   41  25  53 S14       30.17F
OFFUTT AFB     SUNNY     42  28  57 S10       30.17F
MILLARD        SUNNY     44  29  54 S8        30.17F
LINCOLN        SUNNY     44  27  51 S13       30.18F
NEBRASKA CITY  SUNNY     42  29  58 S13       30.21F
BEATRICE       SUNNY     45  31  59 SW12      30.20F
FALLS CITY     SUNNY     44  26  49 S10       30.24F

...NORTHERN KANSAS...

CITY           SKY/WX    TMP DP  RH WIND       PRES   REMARKS
GOODLAND       CLOUDY    47  20  34 SW14      30.14F
HILL CITY      SUNNY     51  22  31 SW13      30.20F
NORTON         SUNNY     50  19  29 S13       30.15F
PHILLIPSBURG   SUNNY     46  25  42 S6        30.19F
SMITH CENTER   SUNNY     41  27  56 SW5       30.21F
HAYS           SUNNY     50  25  37 SW12      30.21F
RUSSELL        SUNNY     47  25  42 SW15      30.20F
CONCORDIA      SUNNY     45  26  47 W9        30.21F
SALINA         SUNNY     52  26  36 SW8       30.25F
TOPEKA         SUNNY     46  28  49 S8        30.27F



USA.gov is the U.S. government's official web portal to all federal, state and local government web resources and services.